Charles City, IA

2:53 AM CDT on August 31, 2016 (GMT -0500)
Charles City Municipal

Weather History for KCCY - November, 2014

Change the Weather History Date:

Sunday, November 30, 2014

  Actual Average Record
Temperature  
Mean Temperature 18 °F -  
Max Temperature 28 °F 35 °F 58 °F (1962)
Min Temperature 8 °F 19 °F -7 °F (1964)
Degree Days  
Heating Degree Days 47    
Moisture  
Dew Point 9 °F    
Average Humidity 73    
Maximum Humidity 100    
Minimum Humidity 62    
Precipitation  
Precipitation 0.00 in - - ()
Sea Level Pressure  
Sea Level Pressure 30.05 in    
Wind  
Wind Speed 20 mph (NNW)    
Max Wind Speed 25 mph    
Max Gust Speed 34 mph    
Visibility 9 miles    
Events      
Averages and records for this station are not official NWS values.
T = Trace of Precipitation, MM = Missing Value Source: NWS Daily Summary

Daily Weather History Graph

Daily Weather History Graph

Search for Another Location

Airport or City:

Trip Planner

Search our weather history database for the weather conditions in past years. The results will help you decide how hot, cold, wet, or windy it might be!

Date:

Astronomy

Nov. 30, 2014 Rise Set
Actual Time 7:21 AM CST 4:36 PM CST
Civil Twilight 6:49 AM CST 5:08 PM CST
Nautical Twilight 6:14 AM CST 5:44 PM CST
Astronomical Twilight 5:39 AM CST 6:18 PM CST
Moon 1:16 PM CST (11/30) 12:42 AM CST (11/30)
Length of Visible Light 10h 19m
Length of Day
9h 15m
Waxing Gibbous, 65% of the Moon is Illuminated
Nov 30
Waxing Gibbous
Dec 6
Full
Dec 14
Last Quarter
Dec 21
New
Dec 28
First Quarter

Hourly Weather History & Observations

Time (CST) Temp. Windchill Dew Point Humidity Pressure Visibility Wind Dir Wind Speed Gust Speed Precip Events Conditions
12:15 AM 28.4 °F 16.6 °F 26.6 °F 93% 29.61 in 2.0 mi NNW 16.1 mph 23.0 mph N/A   Overcast
12:35 AM 26.6 °F 12.4 °F 26.6 °F 100% 29.62 in 2.5 mi NNW 21.9 mph 28.8 mph N/A   Overcast
12:55 AM 26.6 °F 13.1 °F 24.8 °F 93% 29.65 in 3.0 mi NNW 19.6 mph 27.6 mph N/A   Overcast
1:15 AM 26.6 °F 12.0 °F 24.8 °F 93% 29.65 in 3.0 mi NW 23.0 mph - N/A   Overcast
1:35 AM 26.6 °F 13.8 °F 24.8 °F 93% 29.67 in 3.0 mi NW 17.3 mph 26.5 mph N/A   Overcast
1:55 AM 26.6 °F 12.7 °F 24.8 °F 93% 29.69 in 3.0 mi NW 20.7 mph 26.5 mph N/A   Overcast
2:15 AM 24.8 °F 10.7 °F 24.8 °F 100% 29.68 in 4.0 mi NW 19.6 mph 28.8 mph N/A   Overcast
2:35 AM 24.8 °F 9.6 °F 23.0 °F 93% 29.68 in 4.0 mi NNW 23.0 mph - N/A   Overcast
2:55 AM 24.8 °F 9.0 °F 23.0 °F 93% 29.70 in 6.0 mi NNW 25.3 mph - N/A   Overcast
3:15 AM 24.8 °F 11.1 °F 21.2 °F 86% 29.72 in 10.0 mi NNW 18.4 mph 25.3 mph N/A   Overcast
3:35 AM 23.0 °F 6.9 °F 15.8 °F 74% 29.73 in 10.0 mi NNW 24.2 mph 34.5 mph N/A   Scattered Clouds
3:55 AM 21.2 °F 5.2 °F 15.8 °F 80% 29.74 in 10.0 mi NNW 21.9 mph - N/A   Mostly Cloudy
4:15 AM 21.2 °F 5.2 °F 14.0 °F 74% 29.74 in 10.0 mi NNW 21.9 mph 31.1 mph N/A   Overcast
4:35 AM 21.2 °F 5.2 °F 14.0 °F 74% 29.75 in 10.0 mi NNW 21.9 mph 29.9 mph N/A   Mostly Cloudy
4:55 AM 21.2 °F 6.0 °F 14.0 °F 74% 29.76 in 10.0 mi NNW 19.6 mph - N/A   Partly Cloudy
5:15 AM 19.4 °F 1.8 °F 14.0 °F 80% 29.78 in 10.0 mi NNW 25.3 mph - N/A   Clear
5:35 AM 19.4 °F 4.1 °F 14.0 °F 80% 29.76 in 10.0 mi North 18.4 mph - N/A   Clear
5:55 AM 19.4 °F 4.1 °F 14.0 °F 80% 29.79 in 10.0 mi NNW 18.4 mph 26.5 mph N/A   Clear
6:15 AM 19.4 °F 6.6 °F 14.0 °F 80% 29.80 in 10.0 mi NNW 12.7 mph 21.9 mph N/A   Clear
6:35 AM 17.6 °F 3.2 °F 12.2 °F 79% 29.82 in 10.0 mi NNW 15.0 mph - N/A   Clear
6:55 AM 17.6 °F 1.3 °F 10.4 °F 73% 29.83 in 10.0 mi NNW 19.6 mph 26.5 mph N/A   Clear
7:15 AM 15.8 °F -0.6 °F 10.4 °F 79% 29.84 in 10.0 mi NNW 18.4 mph 24.2 mph N/A   Clear
7:35 AM 15.8 °F -0.6 °F 8.6 °F 73% 29.86 in 10.0 mi NNW 18.4 mph - N/A   Clear
7:55 AM 15.8 °F -1.1 °F 8.6 °F 73% 29.88 in 10.0 mi NNW 19.6 mph 25.3 mph N/A   Clear
8:15 AM 15.8 °F -0.6 °F 8.6 °F 73% 29.90 in 10.0 mi NNW 18.4 mph 25.3 mph N/A   Partly Cloudy
8:35 AM 15.8 °F -0.2 °F 8.6 °F 73% 29.92 in 10.0 mi NNW 17.3 mph 25.3 mph N/A   Clear
8:55 AM 17.6 °F 0.1 °F 8.6 °F 68% 29.94 in 10.0 mi NNW 23.0 mph - N/A   Partly Cloudy
9:15 AM 17.6 °F 0.5 °F 8.6 °F 68% 29.96 in 10.0 mi NNW 21.9 mph 31.1 mph N/A   Mostly Cloudy
9:35 AM 17.6 °F 0.5 °F 8.6 °F 68% 29.98 in 10.0 mi NNW 21.9 mph 29.9 mph N/A   Overcast
9:55 AM 17.6 °F 0.1 °F 8.6 °F 68% 29.99 in 10.0 mi NW 23.0 mph - N/A   Overcast
10:15 AM 17.6 °F 0.5 °F 8.6 °F 68% 30.01 in 10.0 mi NNW 21.9 mph 29.9 mph N/A   Overcast
10:35 AM 17.6 °F 1.3 °F 8.6 °F 68% 30.02 in 10.0 mi NNW 19.6 mph 26.5 mph N/A   Overcast
10:55 AM 17.6 °F 0.1 °F 8.6 °F 68% 30.03 in 10.0 mi NNW 23.0 mph - N/A   Overcast
11:15 AM 17.6 °F 0.5 °F 8.6 °F 68% 30.04 in 10.0 mi NNW 21.9 mph 31.1 mph N/A   Overcast
11:35 AM 17.6 °F 0.5 °F 8.6 °F 68% 30.04 in 10.0 mi NNW 21.9 mph 28.8 mph N/A   Overcast
11:55 AM 17.6 °F 1.3 °F 8.6 °F 68% 30.06 in 10.0 mi NNW 19.6 mph 29.9 mph N/A   Mostly Cloudy
12:15 PM 17.6 °F 0.1 °F 8.6 °F 68% 30.06 in 10.0 mi NNW 23.0 mph - N/A   Mostly Cloudy
12:35 PM 17.6 °F -0.3 °F 8.6 °F 68% 30.06 in 10.0 mi NNW 24.2 mph 32.2 mph N/A   Mostly Cloudy
12:55 PM 17.6 °F 1.7 °F 8.6 °F 68% 30.07 in 10.0 mi NNW 18.4 mph 31.1 mph N/A   Scattered Clouds
1:15 PM 17.6 °F -0.3 °F 8.6 °F 68% 30.08 in 10.0 mi NNW 24.2 mph 32.2 mph N/A   Mostly Cloudy
1:35 PM 19.4 °F 4.1 °F 8.6 °F 63% 30.09 in 10.0 mi NNW 18.4 mph 29.9 mph N/A   Scattered Clouds
1:55 PM 17.6 °F -0.6 °F 8.6 °F 68% 30.09 in 10.0 mi NNW 25.3 mph - N/A   Mostly Cloudy
2:15 PM 17.6 °F 0.9 °F 8.6 °F 68% 30.10 in 10.0 mi NNW 20.7 mph 27.6 mph N/A   Mostly Cloudy
2:35 PM 17.6 °F 1.3 °F 8.6 °F 68% 30.11 in 10.0 mi NNW 19.6 mph 27.6 mph N/A   Mostly Cloudy
2:55 PM 17.6 °F 1.3 °F 6.8 °F 63% 30.13 in 10.0 mi NNW 19.6 mph 27.6 mph N/A   Scattered Clouds
3:15 PM 15.8 °F -1.1 °F 6.8 °F 68% 30.14 in 10.0 mi NNW 19.6 mph 28.8 mph N/A   Partly Cloudy
3:35 PM 15.8 °F 0.3 °F 6.8 °F 68% 30.16 in 10.0 mi NNW 16.1 mph 27.6 mph N/A   Partly Cloudy
3:55 PM 15.8 °F -1.5 °F 5.0 °F 62% 30.18 in 10.0 mi NNW 20.7 mph 28.8 mph N/A   Clear
4:15 PM 14.0 °F -3.9 °F 5.0 °F 67% 30.19 in 10.0 mi NNW 20.7 mph - N/A   Clear
4:35 PM 14.0 °F -3.9 °F 5.0 °F 67% 30.20 in 10.0 mi NNW 20.7 mph 28.8 mph N/A   Clear
4:55 PM 14.0 °F -2.5 °F 5.0 °F 67% 30.21 in 10.0 mi NNW 17.3 mph 24.2 mph N/A   Clear
5:15 PM 14.0 °F -3.9 °F 3.2 °F 62% 30.24 in 10.0 mi NNW 20.7 mph 26.5 mph N/A   Partly Cloudy
5:35 PM 14.0 °F -3.4 °F 3.2 °F 62% 30.26 in 10.0 mi NNW 19.6 mph 28.8 mph N/A   Partly Cloudy
5:55 PM 12.2 °F -6.3 °F 3.2 °F 67% 30.27 in 10.0 mi NNW 20.7 mph 29.9 mph N/A   Clear
6:15 PM 12.2 °F -5.3 °F 3.2 °F 67% 30.28 in 10.0 mi NNW 18.4 mph 28.8 mph N/A   Clear
6:35 PM 12.2 °F -7.1 °F 3.2 °F 67% 30.29 in 10.0 mi NNW 23.0 mph 29.9 mph N/A   Clear
6:55 PM 12.2 °F -5.3 °F 3.2 °F 67% 30.31 in 10.0 mi NNW 18.4 mph 33.4 mph N/A   Clear
7:15 PM 10.4 °F -7.7 °F 3.2 °F 73% 30.33 in 10.0 mi NNW 18.4 mph 28.8 mph N/A   Clear
7:35 PM 10.4 °F -6.0 °F 3.2 °F 73% 30.34 in 10.0 mi NNW 15.0 mph 24.2 mph N/A   Clear
7:55 PM 10.4 °F -7.7 °F 1.4 °F 67% 30.36 in 10.0 mi NNW 18.4 mph 27.6 mph N/A   Clear
8:15 PM 10.4 °F -8.2 °F 1.4 °F 67% 30.37 in 10.0 mi NNW 19.6 mph - N/A   Clear
8:35 PM 10.4 °F -9.1 °F 1.4 °F 67% 30.40 in 10.0 mi NNW 21.9 mph 28.8 mph N/A   Clear
8:55 PM 8.6 °F -12.3 °F 1.4 °F 73% 30.41 in 10.0 mi NNW 24.2 mph - N/A   Clear
9:15 PM 8.6 °F -10.5 °F -0.4 °F 67% 30.43 in 10.0 mi NNW 19.6 mph 27.6 mph N/A   Mostly Cloudy
9:35 PM 8.6 °F -10.0 °F -0.4 °F 67% 30.43 in 10.0 mi NNW 18.4 mph 25.3 mph N/A   Mostly Cloudy
9:55 PM 8.6 °F -10.5 °F -0.4 °F 67% 30.43 in 10.0 mi NNW 19.6 mph 25.3 mph N/A   Overcast
10:15 PM 8.6 °F -11.0 °F -0.4 °F 67% 30.44 in 10.0 mi NNW 20.7 mph - N/A   Overcast
10:35 PM 8.6 °F -9.5 °F -0.4 °F 67% 30.46 in 10.0 mi NNW 17.3 mph 23.0 mph N/A   Scattered Clouds
10:55 PM 8.6 °F -7.0 °F -2.2 °F 62% 30.48 in 10.0 mi NNW 12.7 mph 21.9 mph N/A   Partly Cloudy
11:15 PM 8.6 °F -8.3 °F -0.4 °F 67% 30.49 in 10.0 mi NW 15.0 mph - N/A   Scattered Clouds
11:35 PM 8.6 °F -8.9 °F -2.2 °F 62% 30.50 in 10.0 mi NNW 16.1 mph 23.0 mph N/A   Overcast
11:55 PM 8.6 °F -5.5 °F -2.2 °F 62% 30.51 in 10.0 mi NW 10.4 mph 17.3 mph N/A   Overcast